Погода в Новом Солкушине

Россия / Чеченская Республика     43˚35′11″N   45˚40′51″E
темп.,
°C
ветер,
м/с
пор.,
м/с
влажн.,
%
обл.,
%
осадки,
мм/ч
давл.,
гПа
погр.,
м
16 января, сб
сб1600:00+3˚ю227399 0.0 101370
03:00+2˚сз4694100 0.2 1015376
06:00+1˚зюз229499 0.3 1017198
09:00+2˚ююв118369 0.3 1018198
12:00+4˚в346834 0.0 1017678
15:00+5˚в446134 0.0 1016879
18:00+3˚в367027 0.0 1017267
21:00+1˚в378063 0.0 1016346
17 января, вс
вс1700:00всв2689100 0.0 1014305
03:00+2˚всв4787100 0.0 1012438
06:00+2˚всв4791100 0.2 1010373
09:00+2˚всв4891100 0.5 1007384
12:00+3˚св4886100 0.1 1005431
15:00+3˚св4687100 0.1 1004371
18:00+3˚св3592100 0.1 1005287
21:00+2˚всв3691100 0.2 1004308
18 января, пн
пн1800:00+2˚св2490100 0.0 1003259
03:00+1˚св2490100 0.0 1002229
06:00сз3489100 0.0 1004272
09:00сз5791100 0.1 1007419
12:00+2˚зсз71073100 0.1 1009859
15:00+1˚зсз7108499 0.3 1011792
18:00+1˚зсз6867100 0.1 1015975
21:00−1˚зсз5964100 0.1 1016831
19 января, вт
вт1900:00−2˚зсз496994 0.0 1017519
03:00−2˚зсз486797 0.0 1019586
06:00−2˚зсз3568100 0.0 1020394
09:00−2˚з126470 0.0 1021264
12:00+2˚юв22451 0.0 1019543
15:00+2˚вюв454533 0.0 1018627
18:00ссв4760100 0.0 1019214
21:00−2˚всв3668100 0.0 1021260
20 января, ср
ср2000:00−2˚ю117078 0.0 102250
03:00−3˚с468989 0.1 1023370
06:00−3˚с139088 0.2 1024264
09:00−2˚ссз237293 0.4 1026565
12:00−1˚с335597 0.0 1025891
15:00−1˚с225398 0.0 10251025
18:00−3˚сз016358 0.0 102845
21:00−3˚юз226464 0.0 103040